sat.trackr.live / text

‹ back to catalog

STARLINK-6326

NORAD 56787 · 2023-078W

PAYLOAD ACTIVE UNKNOWN

§ Identity

Operator
Country
US
Launch date
2023-05-31
Launch site
AFWTR
Launch vehicle
Mass (kg)
RCS (m²)

Purposes: comms

External: N2YO · Heavens-Above · Gunter

§ Orbital elements

Epoch: 2026-09-20T22:00:03.000096Z

Period
95.57 min
Inclination
70.0018°
Eccentricity
0.0005343
Mean motion
15.06692207 rev/d
Perigee alt
542.6 km
Apogee alt
550.0 km
Semi-major
6,924.5 km
B*
3.9463e-4
RAAN
192.0238°
Arg perigee
278.3502°
Mean anomaly
10.9539°
Rev number
566

§ Raw data

STARLINK-63261 56787U 23078W   26263.91670139  .00005778  00000+0  39463-3 0  99922 56787  70.0018 192.0238 0005343 278.3502  10.9539 15.06692207  5660

JSON: /api/v1/satellites/56787 · /tle

For live sub-satellite position, see the globe view (requires WebGL).

§ Visibility from observer

Set your observer location to see the next 7 days of passes ≥ 10°. The values pass through the URL so the page stays shareable.

No JS? Fill the form by hand. The geolocation button needs JavaScript.